User: anonymous   Login
Location: Allie Creek
(37.5926°N, 89.8526°W)
Time: 12:47:14
(UTC+00:00)
Language:

FENGYUN 1C DEB - Orbit

View from above orbital plane
View from above orbital plane
View from above satellite
View from above satellite

Ground track
Ground track

The orbit data is extracted from the following two-line orbital elements,

1 38147U 99025EQU 24169.86107327  .00001914  00000-0  89316-3 0  9999
2 38147  98.5900 192.7858 0053749  76.8202 283.8964 14.20767271526706
Epoch (UTC): 17 June 2024 20:39:56
Eccentricity: 0.0053749
inclination: 98.5900°
perigee height: 784 km
apogee height: 861 km
right ascension of ascending node: 192.7858°
argument of perigee: 76.8202°
revolutions per day: 14.20767271
mean anomaly at epoch: 283.8964°
orbit number at epoch: 52670

The dashed part of the orbit path shows where the satellite is in the earth's shadow,  

DLR